| time (UTC) | temp C | wind direction | speed KPH | gust KPH | rain 1hr cm | rain 24hr cm | rain mn cm | humidity % | barometer mb |
| 20260506044601 | 13 | 302 | 0.0 | 8.0 | 0.00 | 0.00 | 0.00 | 83 | 1005.5 |
| 20260506043037 | 13 | 290 | 0.0 | 0.0 | 0.00 | 0.00 | 0.00 | 82 | 1005.3 |
| 20260506041558 | 13 | 290 | 0.0 | 0.0 | 0.00 | 0.00 | 0.00 | 82 | 1005.4 |
| 20260506040022 | 14 | 360 | 0.0 | 0.0 | 0.00 | 0.00 | 0.00 | 82 | 1005.4 |
| 20260506034601 | 14 | 290 | 0.0 | 0.0 | 0.00 | 0.00 | 0.00 | 82 | 1005.5 |
| 20260506033011 | 14 | 360 | 0.0 | 0.0 | 0.00 | 0.00 | 0.00 | 81 | 1005.6 |
| 20260506031546 | 14 | 360 | 0.0 | 0.0 | 0.00 | 0.00 | 0.00 | 80 | 1005.5 |
| 20260506030054 | 15 | 289 | 0.0 | 0.0 | 0.00 | 0.00 | 0.00 | 79 | 1005.6 |
| 20260506024533 | 15 | 290 | 0.0 | 0.0 | 0.00 | 0.00 | 0.00 | 79 | 1005.6 |
| 20260506023033 | 15 | 290 | 0.0 | 4.8 | 0.00 | 0.00 | 0.00 | 78 | 1005.7 |
| 20260506021608 | 16 | 269 | 0.0 | 0.0 | 0.00 | 0.00 | 0.00 | 76 | 1005.7 |
| 20260506020027 | 16 | 360 | 0.0 | 0.0 | 0.00 | 0.00 | 0.00 | 74 | 1005.6 |
| 20260506014558 | 17 | 360 | 0.0 | 0.0 | 0.00 | 0.00 | 0.00 | 72 | 1005.6 |
| 20260506013024 | 17 | 360 | 0.0 | 1.6 | 0.00 | 0.00 | 0.00 | 72 | 1005.5 |
| 20260506011601 | 17 | 360 | 0.0 | 0.0 | 0.00 | 0.00 | 0.00 | 70 | 1005.4 |
| 20260506010013 | 18 | 360 | 0.0 | 0.0 | 0.00 | 0.00 | 0.00 | 68 | 1005.1 |
| 20260506004547 | 18 | 360 | 0.0 | 0.0 | 0.00 | 0.00 | 0.00 | 67 | 1005.0 |
| 20260506003107 | 19 | 269 | 0.0 | 0.0 | 0.00 | 0.00 | 0.00 | 65 | 1004.9 |
| 20260506001536 | 20 | 269 | 0.0 | 0.0 | 0.00 | 0.00 | 0.00 | 62 | 1004.7 |
| 20260505234530 | 22 | 300 | 0.0 | 6.4 | 0.00 | 0.00 | 0.00 | 56 | 1004.4 |
| 20260505233056 | 23 | 265 | 0.0 | 9.7 | 0.00 | 0.00 | 0.00 | 53 | 1004.2 |
| 20260505231524 | 23 | 202 | 3.2 | 12.9 | 0.00 | 0.00 | 0.00 | 49 | 1003.9 |
| 20260505230053 | 23 | 208 | 0.0 | 14.5 | 0.00 | 0.00 | 0.00 | 50 | 1003.8 |
| 20260505224516 | 24 | 216 | 1.6 | 9.7 | 0.00 | 0.00 | 0.00 | 49 | 1003.7 |
| 20260505223047 | 24 | 202 | 3.2 | 16.1 | 0.00 | 0.00 | 0.00 | 47 | 1003.8 |
| 20260505221512 | 24 | 184 | 1.6 | 12.9 | 0.00 | 0.00 | 0.00 | 48 | 1003.7 |
| 20260505220041 | 25 | 205 | 6.4 | 19.3 | 0.00 | 0.00 | 0.00 | 47 | 1003.6 |
| 20260505214505 | 25 | 192 | 4.8 | 16.1 | 0.00 | 0.00 | 0.00 | 47 | 1003.4 |
| 20260505213032 | 25 | 212 | 1.6 | 19.3 | 0.00 | 0.00 | 0.00 | 46 | 1003.3 |
| 20260505211608 | 25 | 199 | 6.4 | 14.5 | 0.00 | 0.00 | 0.00 | 47 | 1003.3 |
| 20260505210024 | 25 | 213 | 6.4 | 16.1 | 0.00 | 0.00 | 0.00 | 45 | 1003.4 |
| 20260505204555 | 25 | 202 | 4.8 | 22.5 | 0.00 | 0.00 | 0.00 | 44 | 1003.4 |
| 20260505203018 | 25 | 207 | 6.4 | 24.1 | 0.00 | 0.00 | 0.00 | 45 | 1003.3 |
| 20260505201554 | 25 | 195 | 11.3 | 32.2 | 0.00 | 0.00 | 0.00 | 44 | 1003.3 |
| 20260505200001 | 25 | 190 | 9.7 | 27.4 | 0.00 | 0.00 | 0.00 | 45 | 1003.3 |
| 20260505194525 | 26 | 208 | 11.3 | 33.8 | 0.00 | 0.00 | 0.00 | 45 | 1003.4 |
| 20260505193049 | 26 | 183 | 19.3 | 30.6 | 0.00 | 0.00 | 0.00 | 43 | 1003.4 |
| 20260505191518 | 26 | 197 | 9.7 | 33.8 | 0.00 | 0.00 | 0.00 | 47 | 1003.6 |
| 20260505190040 | 26 | 198 | 9.7 | 33.8 | 0.00 | 0.00 | 0.00 | 47 | 1003.8 |
| 20260505184601 | 25 | 200 | 14.5 | 29.0 | 0.00 | 0.00 | 0.00 | 49 | 1004.2 |
| 20260505183028 | 25 | 204 | 11.3 | 24.1 | 0.00 | 0.00 | 0.00 | 49 | 1004.6 |
| 20260505181552 | 24 | 198 | 12.9 | 30.6 | 0.00 | 0.00 | 0.00 | 52 | 1004.8 |
| 20260505180105 | 25 | 223 | 6.4 | 24.1 | 0.00 | 0.00 | 0.00 | 51 | 1004.9 |
| 20260505174541 | 25 | 242 | 6.4 | 25.7 | 0.00 | 0.00 | 0.00 | 50 | 1004.9 |
| 20260505173103 | 25 | 210 | 4.8 | 19.3 | 0.00 | 0.00 | 0.00 | 51 | 1004.9 |
| 20260505171528 | 25 | 211 | 8.0 | 25.7 | 0.00 | 0.00 | 0.00 | 52 | 1005.0 |
| 20260505170055 | 25 | 196 | 9.7 | 24.1 | 0.00 | 0.00 | 0.00 | 57 | 1005.3 |
| 20260505164521 | 24 | 245 | 6.4 | 24.1 | 0.00 | 0.00 | 0.00 | 57 | 1005.7 |
| 20260505163053 | 23 | 247 | 6.4 | 20.9 | 0.00 | 0.00 | 0.00 | 57 | 1005.8 |
| 20260505161519 | 23 | 209 | 9.7 | 29.0 | 0.00 | 0.00 | 0.00 | 55 | 1006.1 |
| 20260505153029 | 23 | 213 | 14.5 | 29.0 | 0.00 | 0.00 | 0.00 | 55 | 1006.4 |
| 20260505151611 | 23 | 218 | 4.8 | 22.5 | 0.00 | 0.00 | 0.00 | 56 | 1006.3 |
| 20260505140115 | 22 | 200 | 4.8 | 24.1 | 0.00 | 0.00 | 0.00 | 60 | 1006.5 |
| 20260505124608 | 19 | 208 | 0.0 | 14.5 | 0.00 | 0.00 | 0.00 | 66 | 1007.0 |
| 20260505123032 | 19 | 270 | 1.6 | 9.7 | 0.00 | 0.00 | 0.00 | 69 | 1006.9 |
| 20260505121510 | 18 | 338 | 3.2 | 8.0 | 0.00 | 0.00 | 0.00 | 72 | 1006.9 |
| 20260505120049 | 17 | 360 | 0.0 | 4.8 | 0.00 | 0.00 | 0.00 | 75 | 1007.0 |
| 20260505114521 | 16 | 335 | 0.0 | 4.8 | 0.00 | 0.00 | 0.00 | 80 | 1007.1 |
| 20260505113039 | 15 | 348 | 0.0 | 4.8 | 0.00 | 0.00 | 0.00 | 82 | 1006.9 |
| 20260505111608 | 14 | 347 | 0.0 | 0.0 | 0.00 | 0.00 | 0.00 | 84 | 1006.7 |
| 20260505101538 | 11 | 348 | 0.0 | 0.0 | 0.00 | 0.00 | 0.00 | 84 | 1006.1 |
| 20260505100059 | 11 | 348 | 0.0 | 0.0 | 0.00 | 0.00 | 0.00 | 83 | 1006.3 |
| 20260505094539 | 11 | 348 | 3.2 | 6.4 | 0.00 | 0.00 | 0.00 | 82 | 1006.2 |
| 20260505093006 | 12 | 355 | 0.0 | 1.6 | 0.00 | 0.00 | 0.00 | 82 | 1006.0 |
| 20260505091600 | 12 | 355 | 0.0 | 0.0 | 0.00 | 0.00 | 0.00 | 81 | 1005.9 |
| 20260505090021 | 12 | 355 | 0.0 | 0.0 | 0.00 | 0.00 | 0.00 | 80 | 1006.0 |
| 20260505084557 | 12 | 355 | 0.0 | 0.0 | 0.00 | 0.00 | 0.00 | 80 | 1005.9 |
| 20260505083030 | 12 | 348 | 0.0 | 1.6 | 0.00 | 0.00 | 0.00 | 79 | 1006.0 |
| 20260505081604 | 13 | 350 | 0.0 | 3.2 | 0.00 | 0.00 | 0.00 | 79 | 1006.0 |
| 20260505080022 | 13 | 360 | 1.6 | 9.7 | 0.00 | 0.00 | 0.00 | 80 | 1005.9 |
| 20260505074600 | 13 | 341 | 0.0 | 0.0 | 0.00 | 0.00 | 0.00 | 79 | 1005.7 |
| 20260505073034 | 12 | 342 | 0.0 | 0.0 | 0.00 | 0.00 | 0.00 | 79 | 1005.8 |
| 20260505071523 | 12 | 342 | 0.0 | 0.0 | 0.00 | 0.00 | 0.00 | 78 | 1005.7 |
| 20260505070044 | 12 | 342 | 0.0 | 0.0 | 0.00 | 0.00 | 0.00 | 77 | 1005.8 |
| 20260505064519 | 13 | 342 | 0.0 | 0.0 | 0.00 | 0.00 | 0.00 | 77 | 1006.0 |
| 20260505063040 | 13 | 342 | 0.0 | 1.6 | 0.00 | 0.00 | 0.00 | 77 | 1006.0 |
| 20260505061605 | 13 | 342 | 0.0 | 0.0 | 0.00 | 0.00 | 0.00 | 74 | 1006.1 |
| 20260505060045 | 13 | 343 | 0.0 | 0.0 | 0.00 | 0.00 | 0.00 | 73 | 1006.1 |
| 20260505054513 | 13 | 343 | 0.0 | 0.0 | 0.00 | 0.00 | 0.00 | 74 | 1006.2 |
| 20260505053046 | 13 | 343 | 1.6 | 6.4 | 0.00 | 0.00 | 0.00 | 74 | 1006.3 |
| 20260505051526 | 13 | 343 | 0.0 | 0.0 | 0.00 | 0.00 | 0.00 | 72 | 1006.3 |